sat.trackr.live / text

‹ back to catalog

KUIPER-00112

NORAD 65150 · 2025-171U

PAYLOAD ACTIVE UNKNOWN

§ Identity

Operator
Country
US
Launch date
2025-08-11
Launch site
AFETR
Launch vehicle
Mass (kg)
RCS (m²)

External: N2YO · Heavens-Above · Gunter

§ Orbital elements

Epoch: 2026-05-25T02:06:03.679776Z

Period
97.29 min
Inclination
51.9003°
Eccentricity
0.0000663
Mean motion
14.80129748 rev/d
Perigee alt
628.5 km
Apogee alt
629.4 km
Semi-major
7,007.1 km
B*
2.8578e-4
RAAN
177.7596°
Arg perigee
325.0236°
Mean anomaly
35.0682°
Rev number
4,423

§ Raw data

KUIPER-001121 65150U 25171U   26145.08754259  .00001968  00000+0  28578-3 0  99972 65150  51.9003 177.7596 0000663 325.0236  35.0682 14.80129748 44236

JSON: /api/v1/satellites/65150 · /tle

For live sub-satellite position, see the globe view (requires WebGL).

§ Visibility from observer

Set your observer location to see the next 7 days of passes ≥ 10°. The values pass through the URL so the page stays shareable.

No JS? Fill the form by hand. The geolocation button needs JavaScript.